ATLAS 5 CENTAUR DEB *, 43950

Orbit data source: Space-Track

ATLAS 5 CENTAUR DEB *, 43950 is space debris in HEO originally from a launch on Wed, 17 Sep 2014 UTC launched from the Air Force Eastern Test Range (AFETR). Debris objects in space refer to the collection of defunct objects orbiting the Earth. Examples of debris include non-operational satellites, rocket bodies, and fragments generated from explosions, collisions, or faulty payload assembly.

Loading next visibility...
Identifier
43950, 2014-055D
Orbit
HEO
Country
Flag of USUS
Related business
Flag of USUnited Launch Alliance/Lockheed Martin (US)
Manufacturer
Unknown
Mission
Spacecraft
Bus & Motor
Unknown
Mass
Unknown
Launch date (UTC)
2014-09-17 (12 years ago)
Launch vehicle
Unknown
Launch site
Air Force Eastern Test Range (AFETR)
Object type
Payload
Rocket body
Debris
Shape & HBR
Unknown shape, 1.1 m
Radar Cross Section
Small (<0.1 m²)

Expand to show TLE details & history
Last TLE update: 5 days ago

TLE from 5 days ago
0 ATLAS 5 CENTAUR DEB *
1 43950U 14055D   26121.79093707 -.00000347  00000-0  00000-0 0  9995
2 43950  22.0308 103.1071 5172259 250.0992  48.7125  1.95819301 54776
Epoch: 2026-05-01T18:58Z
TLE epoch observation values (Epoch: 2026-05-01T18:58:56.962Z)
Latitude
-0.0001°
Longitude
-41.42169°
Altitude
17,576.843 km
Speed
4.302 km/s
True Right ascension
06h 52m 08s
True Declination
0° 00' 00"
Sunlit
Object was in daylight at epoch
Visualization orbit readout
Latitude
Unknown
Longitude
Unknown
Altitude
Unknown
Speed
Unknown
Apparent Right ascension
Unknown
Apparent Declination
Unknown
Sunlit
N/A
Visualization observer readout
Local Sidereal Time
05:34:18
Azimuth
Unknown
Elevation
Unknown
Doppler factor
Unknown
Orbital elements
Apogee altitude
34,571.345 km
Perigee altitude
6,651.794 km
Semi-major axis
26,989.706 km
Eccentricity
0.51723
Inclination
22.0308°
RAAN
103.1071°
Arg. of periapsis
250.0992°
True anomaly
109.9549°
Mean anomaly
48.7125°
Eccentric anomaly
77.66303°
Mean motion
0.48949 °/min
Orbital period
735.46 mins
BSTAR
0
Loading maneuver chart data...
Computing Atmospheric mass density...

Documentation

Showing up to 5 results
|